Boundary Cnty AP, Bonners Fer, ID

1:31 PM PDT on May 25, 2017 (GMT -0700)
Boundary Cnty AP, Bonners Fer

Weather History for K65S - February, 2014

Change the Weather History Date:

Wednesday, February 26, 2014

  Actual Average (KSZT) Record (KSZT)
Temperature  
Mean Temperature 30 °F -  
Max Temperature 35 °F 43 °F 53 °F (2016)
Min Temperature 26 °F 24 °F 17 °F (2014)
Degree Days  
Heating Degree Days 34    
Moisture  
Dew Point 15 °F    
Average Humidity 51    
Maximum Humidity 64    
Minimum Humidity 38    
Precipitation  
Precipitation 0.00 in - - ()
Sea Level Pressure  
Sea Level Pressure 29.98 in    
Wind  
Wind Speed 2 mph (North)    
Max Wind Speed 7 mph    
Max Gust Speed -    
Visibility 10 miles    
Events      
Averages and records for this station are not official NWS values.
T = Trace of Precipitation, MM = Missing Value Source: NWS Daily Summary

Daily Weather History Graph

Daily Weather History Graph

Search for Another Location

Airport or City:

Trip Planner

Search our weather history database for the weather conditions in past years. The results will help you decide how hot, cold, wet, or windy it might be!

Date:

Astronomy

Feb. 26, 2014 Rise Set
Actual Time 6:32 AM PST 5:24 PM PST
Civil Twilight 6:00 AM PST 5:56 PM PST
Nautical Twilight 5:24 AM PST 6:32 PM PST
Astronomical Twilight 4:48 AM PST 7:09 PM PST
Moon 4:33 AM PST (2/26) 2:34 PM PST (2/26)
Length of Visible Light 11h 55m
Length of Day
10h 51m
Waning Crescent, 9% of the Moon is Illuminated
Feb 26
Waning Crescent
Mar 1
New
Mar 8
First Quarter
Mar 16
Full
Mar 23
Last Quarter

Hourly Weather History & Observations

Time (PST) Temp. Windchill Dew Point Humidity Pressure Visibility Wind Dir Wind Speed Gust Speed Precip Events Conditions
10:55 AM 26.6 °F - 10.4 °F 51% 30.18 in 10.0 mi Calm Calm - N/A   Clear
11:15 AM 26.6 °F 21.2 °F 10.4 °F 51% 30.17 in 10.0 mi NNE 4.6 mph - N/A   Clear
11:35 AM 28.4 °F - 10.4 °F 47% 30.15 in 10.0 mi Calm Calm - N/A   Clear
11:55 AM 30.2 °F 24.3 °F 10.4 °F 44% 30.14 in 10.0 mi East 5.8 mph - N/A   Clear
12:15 PM 32.0 °F 26.4 °F 10.4 °F 41% 30.12 in 10.0 mi NE 5.8 mph - N/A   Clear
12:35 PM 32.0 °F 26.4 °F 12.2 °F 44% 30.10 in 10.0 mi NE 5.8 mph - N/A   Clear
12:55 PM 32.0 °F 25.6 °F 12.2 °F 44% 30.08 in 10.0 mi NE 6.9 mph - N/A   Clear
1:15 PM 32.0 °F - 12.2 °F 44% 30.07 in 10.0 mi Calm Calm - N/A   Clear
1:35 PM 32.0 °F 25.6 °F 10.4 °F 41% 30.05 in 10.0 mi WNW 6.9 mph - N/A   Clear
1:55 PM 33.8 °F 30.8 °F 12.2 °F 41% 30.04 in 10.0 mi NNW 3.5 mph - N/A   Clear
2:15 PM 33.8 °F 30.8 °F 12.2 °F 41% 30.03 in 10.0 mi NW 3.5 mph - N/A   Clear
2:35 PM 35.6 °F - 12.2 °F 38% 30.03 in 10.0 mi Calm Calm - N/A   Clear
2:55 PM 35.6 °F - 14.0 °F 41% 30.02 in 10.0 mi Calm Calm - N/A   Clear
3:15 PM 35.6 °F - 14.0 °F 41% 30.01 in 10.0 mi Calm Calm - N/A   Clear
3:35 PM 35.6 °F - 14.0 °F 41% 30.00 in 10.0 mi Calm Calm - N/A   Clear
3:55 PM 35.6 °F 31.7 °F 14.0 °F 41% 29.99 in 10.0 mi NW 4.6 mph - N/A   Clear
4:15 PM 33.8 °F 30.8 °F 14.0 °F 44% 29.98 in 10.0 mi NW 3.5 mph - N/A   Mostly Cloudy
4:35 PM 33.8 °F 30.8 °F 14.0 °F 44% 29.97 in 10.0 mi NW 3.5 mph - N/A   Overcast
4:55 PM 32.0 °F - 15.8 °F 51% 29.97 in 10.0 mi Calm Calm - N/A   Overcast
5:15 PM 32.0 °F - 15.8 °F 51% 29.96 in 10.0 mi Calm Calm - N/A   Overcast
5:35 PM 33.8 °F - 15.8 °F 48% 29.95 in 10.0 mi Calm Calm - N/A   Overcast
5:55 PM 33.8 °F 28.6 °F 15.8 °F 48% 29.95 in 10.0 mi NE 5.8 mph - N/A   Overcast
6:15 PM 32.0 °F 28.7 °F 17.6 °F 55% 29.95 in 10.0 mi NNE 3.5 mph - N/A   Overcast
6:35 PM 32.0 °F - 17.6 °F 55% 29.94 in 10.0 mi Calm Calm - N/A   Overcast
6:55 PM 32.0 °F - 17.6 °F 55% 29.94 in 10.0 mi Calm Calm - N/A   Overcast
7:15 PM 32.0 °F - 15.8 °F 51% 29.93 in 10.0 mi Calm Calm - N/A   Overcast
7:35 PM 32.0 °F - 17.6 °F 55% 29.93 in 10.0 mi Calm Calm - N/A   Overcast
7:55 PM 30.2 °F 26.7 °F 17.6 °F 60% 29.92 in 10.0 mi North 3.5 mph - N/A   Overcast
8:15 PM 30.2 °F 23.4 °F 17.6 °F 60% 29.91 in 10.0 mi NNW 6.9 mph - N/A   Overcast
8:35 PM 30.2 °F 24.3 °F 17.6 °F 60% 29.91 in 10.0 mi North 5.8 mph - N/A   Overcast
8:55 PM 30.2 °F - 17.6 °F 60% 29.91 in 10.0 mi Calm Calm - N/A   Overcast
9:15 PM 30.2 °F - 19.4 °F 64% 29.91 in 10.0 mi Calm Calm - N/A   Overcast
9:35 PM 30.2 °F - 17.6 °F 60% 29.90 in 10.0 mi Calm Calm - N/A   Overcast
9:55 PM 28.4 °F 24.6 °F 17.6 °F 64% 29.90 in 10.0 mi North 3.5 mph - N/A   Overcast
10:15 PM 28.4 °F - 17.6 °F 64% 29.89 in 10.0 mi Calm Calm - N/A   Overcast
10:35 PM 28.4 °F 22.2 °F 17.6 °F 64% 29.89 in 10.0 mi NNW 5.8 mph - N/A   Scattered Clouds
10:55 PM 26.6 °F 20.0 °F 15.8 °F 64% 29.88 in 10.0 mi North 5.8 mph - N/A   Clear
11:15 PM 26.6 °F - 15.8 °F 64% 29.88 in 10.0 mi Calm Calm - N/A   Mostly Cloudy
11:35 PM 28.4 °F - 15.8 °F 59% 29.88 in 10.0 mi Calm Calm - N/A   Overcast
11:55 PM 28.4 °F - 15.8 °F 59% 29.87 in 10.0 mi Calm Calm - N/A   Overcast